Погода в Шаки

Погода в Шаки : погода сейчас, прогноз погоды и архив. Всё, что Вы хотите узнать о погоде в Шаки!

Поиск расширенной информации на нашем сайте:

Другие новости

Новости СМИ2

Главная страница сайта

Новости сайта

03.07.2017

Напоминаем, что на нашем специализированном сайте Метеоцентр.Азия вы можете получить высокодетализированные автоматические прогнозы погоды по пунктам России, СНГ и мира в авиационном формате (включающие направление и скорость ветра, видимость, явления погоды, количество и форму облачности, нижнюю и верхнюю границу облачности).

Рекомендуем: удобные сауны города екатеринбурга

Погода в Шаки - сегодня

Время (UTC), дата Ветер
(°,м/с) 
Видим.   Явления Облачность Т
(°С)
Тd
(°С)
f(%) Тe
(°С)
Pmin
(гПа)
dP
(гПа)
Po
(мм)
O2
(г/м3)
Тmin Tmax R s Состояние
почвы
09 22.02.18 300 (СЗ) 10 км    9/9 600 м 
[Sc]
+5.5 +2.7 82 +6  1018.4  -1.1  707  279           
12 22.02.18 350 (С) 10 км    9/9 600 м 
[Sc]
+6.1 +2.7 79 +7  1017.2  -0.9  706  278           
15 22.02.18 290 (З) 10 км    9/9 600 м 
[Sc]
+5.7 +0.9 71 +7  1017.1  -0.3  706  278           
21 22.02.18 060 (СВ) 10 км    9/9 600 м 
[Sc]
+4.9 +0.5 73 +6  1017.9  0.3  706  279           
00 23.02.18 050 (СВ) 10 км    9/9 600 м 
[Sc]
+4.5 +0.9 77 +5  1018.1  0.1  706  280           
03 23.02.18 350 (С) 10 км    9/9 600 м 
[Sc]
+4.2 -0.7 70 +5  1018.3  0.1  706  280           
06 23.02.18 050 (СВ) 10 км    10/10 600 м 
[Sc]
+4.7 +0.3 73 +6  1018.2  706  280  +4         
09 23.02.18 350 (С) 10 км    10/10 600 м 
[Sc]
+5.5 +0.9 72 +6  1017.8  -0.1  706  279           
12 23.02.18 340 (С) 10 км    10/10 600 м 
[Sc]
+6.1 +1.3 71 +6  1016.8  -0.7  706  278           
15 23.02.18 330 (СЗ) 10 км    10/10 600 м 
[Sc]
+5.3 +1.2 75 +5  1016.7  -0.4  705  279           
21 23.02.18 010 (С) 10 км    10/10 600 м 
[Sc]
+4.7 +0.8 76 +6  1016.4  -0.4  705  279           
00 24.02.18 350 (С) 10 км    10/10 600 м 
[Sc]
+4.3 +0.4 76 +5  1016  -0.5  705  279           
03 24.02.18 030 (СВ) 10 км    10/10 600 м 
[Sc]
+3.7 -0.3 75 +5  1014.3  -1.7  703  280           
09 24.02.18 260 (З) 20000 м    6/0 средняя 
[Ac und]
+7.3 +1.3 66 +8  1012.2  -0.7  703  275           
12 24.02.18 250 (З) 20000 м    ясно 
+9.6 +2.9 63 +10  1010.6  -0.8  702  273           
15 24.02.18 250 (З) 20000 м    ясно 
+7.1 +1.9 69 +6  1011.5  0.2  702  275           
21 24.02.18 070 (В) 20000 м    6/0 средняя, верхняя 
[Ac und|Ci fib]
+5 +1.5 78 +5  1013.2  -0.3  703  278           
00 25.02.18 080 (В) 10 км    10/10 600 м 
[Sc]
+4 +0.9 80 +5  1013.4  -0.1  703  279           
03 25.02.18 350 (С) 10 км    10/10 600 м 
[Sc]
+4.2 +2.2 87 +4  1013.4  703  278           
09 25.02.18 320 (СЗ) 20000 м    3/0 средняя 
[Ac und]
+9.1 +3.2 67 +9  1011  -0.4  702  273           
12 25.02.18 320 (СЗ) 20000 м    3/0 средняя, верхняя 
[Ac und|Ci fib]
+11.3 +4.5 63 +12  1007.5  -2.8  700  270           
15 25.02.18 280 (З) 20000 м    ясно 
+9.1 +3.8 69 +10  1006.9  -1.1  699  272           
18 25.02.18 050 (СВ) 20000 м    6/0 средняя 
[Ac und]
+6.3 +2.9 79 +7  1009  -1.2  700  275    +12.2       
21 25.02.18 060 (СВ) 10 км    9/9 600 м 
[Sc]
+6.7 +3.1 78 +8  1008.8  700  275           
00 26.02.18 330 (СЗ) 10 км    9/9 600 м 
[Sc]
+5.7 +2.5 80 +7  1009.5  0.3  701  276           
Время (UTC), дата Ветер
(°,м/с) 
Видим.   Явления Облачность Т
(°С)
Тd
(°С)
f(%) Тe
(°С)
Pmin
(гПа)
dP
(гПа)
Po
(мм)
O2
(г/м3)
Тmin Tmax R s Состояние
почвы

Для получения пояснительной информации подведите курсор к названию столбца.

ПОГОДА в Шаки - архив

Всё, что Вы хотите узнать о погоде в Шаки - удобно и подробно!

Выберите нужную дату (начиная с 1 января 2015* года) и нажмите кнопку "Найти".
Будут отображены архивные сводки погоды по пункту Шаки, начиная с указанной даты.


Отображать данные в формате CSV (для использования в таблицах Excel)


Внимание! Наш архив погоды предназначен исключительно для личного некоммерческого использования в познавательных целях. Если Вам необходимы официальные справки о состоянии погоды (для производственных, юридических, коммерческих и т.п. целей), обращайтесь в органы Росгидромета.

*Примечание: данная дата относится к архиву по метеостанциям СССР (Россия, СНГ, Балтия).
Архив по метеостанциям Зарубежной Европы и Азии (кроме Китая) хранится 10 дней, по другим регионам земного шара (Китай, Африка, Америка, Австралия, Океания) - 1 день.

Шаки - район местоположения метеостанции


Название, широта, долгота, высота метеостанции:
Шаки 41.2°ш. 47.2°д. 641 м над ур. моря [Азербайджан]

Дополнительная информация

В oтличие oт бoльшинства пoгoдных сайтoв мы публикуем пoдрoбную метеoинфoрмацию в детальнoм прoфессиoнальнoм фoрмате.

Характеристики температуры и влажнoсти вoздуха измеряются на высoте 2 м в тени вдали oт зданий и деревьев.
Скoрoсть ветра измеряется на высoте 10 м (на урoвне рoста челoвека скoрoсть ветра ниже в 1.5-2 раза). Если метеoстанция нахoдится в гoрoде или в лесу, тo скoрoсть ветра занижена на 2-4 м/с пo сравнению с oткрытым местoм. Скoрoсть ветра над акватoриями крупных рек и oзёр, а также на вершинах хoлмoв на 2-5 м/с выше, чем в oбычных услoвиях.
Атмoсфернoе давление в разных тoчках местнoсти мoжет значительнo oтличаться oт давления на метеoстанции, в зависимoсти oт услoвий рельефа (при пoдъёме на 10 м давление пoнижается примернo на 1 мм рт.ст.).